Wetbulb
61.45 60.24 61.79 59.71 52.30 51.41 45.67 46.93 51.85 50.85 51.95 54.70 58.06 56.39 54.94 56.36 52.30 50.15 65.19 66.91 68.36 68.72 71.07 70.62 70.83 70.65 70.33 70.78 71.61 71.64 72.12 71.77 71.29 70.56 69.73 68.38 68.06 68.49 68.16 68.32 69.42 68.91 67.81 67.80 67.68 68.17 68.09 68.42 68.12
59.76 58.10 60.74 57.18 49.48 44.20 44.67 48.48 49.93 51.96 52.56 56.38 55.19 55.16 54.03 53.45 60.80 62.08 63.93 66.41 68.44 69.90 70.21 70.04 69.98 70.78 69.92 70.15 71.12 71.29 71.53 71.55 70.96 70.15 69.02 68.03 67.69 68.17 67.97 67.85 69.03 69.53 68.39 67.26 67.21 67.12 67.02 66.79 67.23
58.27 56.81 56.09 53.06 49.72 44.95 44.58 48.67 52.32 51.58 53.88 53.89 53.48 56.43 55.77 55.57 61.24 63.57 65.86 67.41 68.56 69.89 70.86 70.18 69.99 70.74 69.78 69.84 70.05 70.57 71.45 71.56 71.23 69.67 68.30 67.77 67.32 67.80 68.03 68.08 68.49 68.92 68.00 67.27 66.84 66.61 66.48 66.25 66.58
58.06 57.38 54.16 49.03 45.75 46.17 46.50 49.34 51.26 52.40 51.35 52.38 55.08 53.11 58.73 62.39 62.85 64.87 66.75 67.81 68.01 69.97 70.64 69.36 70.45 70.51 69.98 69.76 69.58 69.93 70.75 70.98 70.65 69.33 68.25 67.37 66.93 67.31 67.78 68.11 67.68 69.10 68.17 67.47 66.43 66.63 66.38 66.37 66.60
56.63 55.55 49.47 47.10 45.48 46.56 47.60 49.64 52.50 51.64 51.15 52.40 53.99 52.11 56.14 62.22 64.83 65.69 66.49 67.22 67.26 69.43 70.49 70.01 69.95 70.26 70.17 69.61 69.28 69.73 70.15 70.29 70.74 69.41 67.84 67.02 66.67 66.98 66.97 67.52 67.52 68.33 67.52 67.17 66.89 66.89 67.37 66.97 66.51
53.56 54.00 47.12 44.99 45.05 46.84 49.19 50.46 51.40 51.15 51.15 52.58 53.03 53.96 57.11 63.91 63.93 65.70 66.68 67.05 68.33 69.31 70.15 69.70 67.25 68.37 69.20 69.43 69.49 69.57 69.92 70.29 70.12 68.75 67.49 66.74 66.30 66.50 66.63 66.32 66.49 68.25 67.93 67.58 67.56 66.79 66.68 66.65 66.30
52.18 50.91 46.98 46.49 45.27 46.65 48.69 51.23 50.66 50.63 50.74 51.62 55.98 52.07 57.55 62.42 64.70 66.33 66.33 67.48 68.49 69.74 70.02 69.81 69.09 67.99 66.38 67.34 67.64 68.42 69.10 69.78 69.64 68.53 67.64 67.05 66.79 66.86 67.01 66.81 65.98 66.91 68.01 67.01 66.57 66.42 66.75 66.37 65.54
53.28 51.97 45.65 45.81 44.74 44.85 49.77 49.93 50.11 50.37 49.74 53.95 57.23 50.38 53.47 62.75 65.51 66.28 66.36 67.08 67.87 68.98 69.70 69.80 69.43 68.54 68.12 68.25 64.84 65.73 67.02 67.57 67.62 66.24 64.94 64.10 64.78 64.93 64.74 64.41 65.43 65.33 66.83 66.45 65.69 65.56 65.53 65.26 64.48
51.28 48.01 45.18 45.80 45.03 46.20 48.45 48.91 48.83 50.64 51.02 52.59 55.65 54.04 58.56 65.21 65.67 64.93 64.83 66.07 66.98 67.44 68.30 68.92 69.16 68.50 68.00 67.98 65.65 64.02 64.56 64.97 64.56 63.94 62.13 63.08 65.77 65.01 64.37 63.15 64.33 64.63 65.35 65.53 65.39 64.78 64.02 63.47 62.96
51.09 47.61 47.38 49.32 49.01 48.18 48.56 50.06 49.72 49.42 49.60 50.07 52.12 54.49 61.13 64.59 64.52 63.32 63.28 63.85 65.16 65.68 66.49 67.15 68.11 68.63 67.99 66.98 67.61 67.47 66.79 67.42 67.24 67.24 66.59 65.93 65.20 64.70 63.69 62.18 62.17 62.87 62.62 64.83 64.45 63.04 60.39 61.06 64.01
48.60 47.35 48.03 47.07 47.28 48.59 48.96 48.02 49.91 49.54 48.11 50.89 51.12 53.25 60.17 63.39 63.61 63.02 63.43 64.20 64.81 66.07 66.01 66.11 66.87 67.68 68.19 67.41 67.81 67.53 66.94 66.91 66.90 66.81 66.37 65.34 64.10 63.99 64.00 64.62 64.04 63.81 60.68 62.90 62.28 62.24 62.81 61.91 63.14
46.31 45.70 46.91 46.41 47.30 46.92 47.67 48.69 47.90 49.26 49.86 50.50 51.92 54.22 60.13 62.23 62.88 62.95 63.11 63.84 64.56 65.48 66.28 66.17 66.74 66.76 67.19 67.52 66.97 67.59 66.69 66.34 65.93 66.04 65.68 64.28 63.28 63.46 63.31 63.36 63.75 63.61 62.95 62.63 62.90 62.51 62.47 62.25 62.25
46.21 45.90 46.40 46.78 46.37 47.05 46.96 46.79 47.60 48.15 50.33 49.47 49.76 53.76 58.09 61.24 62.68 63.98 64.70 64.99 65.12 64.95 66.00 66.64 66.45 66.34 66.66 66.41 66.15 66.15 66.83 65.92 65.72 65.44 65.23 64.32 62.91 62.68 62.91 62.81 63.02 62.91 62.77 62.31 61.64 61.52 61.20 61.27 61.31
46.13 46.65 46.17 46.36 46.00 46.33 46.32 45.66 46.12 47.08 47.48 47.63 48.97 52.14 56.30 60.12 62.13 63.48 64.01 64.34 64.80 65.73 66.32 67.15 66.78 66.46 66.20 66.48 66.43 65.65 65.63 66.75 65.74 65.06 64.80 64.24 63.36 62.53 62.16 62.17 62.02 62.12 62.21 61.80 61.03 60.66 60.55 60.59 60.63
45.62 43.92 44.75 45.08 45.46 45.21 46.17 44.47 44.61 46.91 45.91 46.21 48.13 50.28 52.50 57.39 61.87 62.45 63.93 64.31 65.32 66.20 67.39 67.03 66.76 66.51 66.16 66.28 66.44 66.13 65.77 65.26 65.91 65.24 64.62 63.98 63.30 62.40 61.52 61.43 61.49 61.51 61.42 60.70 59.63 58.55 58.20 59.05 59.30
42.84 44.33 41.17 42.51 44.48 44.69 44.49 42.92 43.06 46.63 46.01 46.61 47.03 48.65 49.20 51.41 57.35 61.90 63.89 64.69 65.78 66.27 66.48 67.26 66.19 65.55 65.91 66.12 66.42 66.17 66.32 65.94 65.48 65.19 65.15 63.82 63.16 61.53 58.73 58.60 59.16 59.75 59.32 59.44 58.32 56.97 54.13 54.67 55.07
41.37 39.37 39.15 39.07 43.22 43.65 43.14 43.15 43.44 45.86 46.75 46.77 47.82 48.33 48.18 48.84 49.70 52.56 58.97 63.03 64.70 65.43 66.03 66.45 66.92 65.90 65.26 65.69 66.03 66.15 66.02 65.84 65.97 65.16 64.60 64.91 63.40 62.19 59.69 59.62 59.59 58.48 57.68 56.38 56.70 56.78 56.35 55.23 55.95
38.43 37.75 38.29 39.31 41.41 42.47 41.77 42.88 44.93 45.87 45.43 47.67 48.42 48.75 49.02 48.73 49.41 50.10 50.73 52.40 59.13 63.69 65.33 65.95 66.65 66.57 65.70 65.39 65.85 65.69 65.34 65.36 65.67 65.21 63.94 65.31 64.36 63.05 61.70 61.81 60.87 59.12 58.49 56.74 56.15 54.59 55.45 55.75 56.30
41.62 38.51 38.97 39.16 41.84 41.46 41.58 42.42 44.59 46.55 46.02 47.18 48.13 47.86 47.42 47.96 47.97 48.00 48.29 49.23 50.62 55.45 61.45 64.00 65.03 66.16 65.48 63.87 63.58 63.52 63.03 63.91 64.17 64.42 64.00 64.62 64.99 63.74 62.10 61.69 60.71 59.11 58.65 58.87 57.68 55.41 52.59 50.95 52.35
38.86 39.45 38.13 39.55 40.58 41.29 39.91 41.75 44.75 44.89 43.91 43.95 44.24 45.29 45.15 46.87 48.03 48.24 49.15 49.28 47.91 50.31 54.08 58.63 62.31 64.43 65.48 64.58 63.99 64.13 63.95 64.25 64.56 64.45 63.82 63.71 65.03 64.11 62.71 61.96 61.26 58.54 56.84 57.01 56.07 53.96 53.44 50.61 49.47
38.38 38.77 37.50 38.43 38.71 39.27 38.24 39.69 40.80 41.23 42.17 42.95 42.86 43.92 45.11 45.91 46.87 48.24 49.20 50.26 51.31 49.44 48.63 52.94 57.73 61.43 63.88 65.20 64.52 63.73 62.33 62.13 63.37 63.79 63.28 63.07 63.00 63.10 63.36 62.24 61.66 60.24 57.17 55.97 55.50 53.51 51.93 51.84 50.08
36.31 40.05 39.57 37.92 38.87 35.84 37.81 35.12 39.70 39.67 41.14 42.23 44.12 45.79 46.49 47.11 47.59 48.13 48.97 49.26 50.04 50.86 51.98 48.29 51.63 56.99 60.37 63.13 63.29 61.70 60.84 60.49 62.13 62.64 63.51 63.51 62.55 61.94 61.65 60.88 60.18 59.32 57.16 55.88 56.36 54.89 54.49 54.05 49.71
38.09 40.16 39.04 38.38 38.18 37.55 37.20 35.96 39.34 38.26 39.35 41.67 44.00 45.16 46.12 46.78 47.79 47.45 47.79 48.33 49.05 50.44 52.39 54.70 53.63 52.16 55.91 60.10 61.94 61.29 60.77 61.59 62.35 62.83 63.05 63.48 63.57 62.69 62.00 61.24 60.22 59.30 58.64 57.06 57.17 55.22 54.08 53.81 52.78
39.45 38.97 37.88 37.03 36.94 31.68 36.39 36.10 37.39 38.24 40.04 41.51 43.35 44.60 45.47 46.07 46.60 47.10 47.48 48.55 48.90 50.30 50.87 51.90 52.64 55.27 57.75 57.71 59.68 60.72 60.57 60.89 61.10 61.69 62.14 62.55 63.13 63.24 62.75 61.54 60.92 60.25 59.46 58.00 57.22 56.38 54.64 53.52 53.17
39.20 38.86 31.54 30.41 30.43 30.21 31.46 31.97 39.09 38.42 40.36 44.27 43.79 44.34 45.18 46.27 46.95 47.06 47.03 47.14 47.30 47.88 48.93 49.15 49.98 49.38 52.32 56.32 55.71 56.63 57.47 58.48 58.29 57.84 57.75 57.58 57.84 57.86 59.05 59.64 59.52 59.84 59.46 58.85 57.85 56.61 55.39 53.91 52.84
38.10 38.51 33.41 26.49 25.97 29.95 29.97 30.39 37.22 39.59 41.00 44.52 44.86 44.81 44.64 45.40 46.23 46.13 46.23 46.62 46.57 46.89 47.89 48.35 48.01 47.84 49.21 50.20 50.49 51.64 53.08 55.16 55.74 55.67 56.05 57.39 57.29 57.67 57.83 57.75 58.29 58.70 58.57 58.89 58.55 57.23 55.83 55.01 53.24
36.63 34.36 37.23 29.03 22.79 30.16 33.63 35.71 37.86 39.18 40.23 42.21 42.66 43.77 44.30 45.11 45.89 45.70 45.83 46.21 46.09 45.84 45.75 46.61 46.62 46.39 47.15 48.08 48.91 48.92 49.50 49.80 49.75 50.27 50.99 51.13 51.53 50.67 51.21 52.73 53.58 54.88 55.57 55.78 55.63 55.71 55.12 54.36 53.66
38.42 39.39 33.27 34.10 26.54 26.23 29.57 31.40 36.57 36.09 39.12 41.60 41.85 43.22 43.27 44.23 44.84 45.09 45.22 44.95 44.90 44.95 44.98 45.13 44.91 44.32 45.06 45.96 46.24 46.19 46.34 46.93 47.34 47.63 46.98 47.27 47.99 48.30 48.54 49.29 50.07 50.75 51.67 52.58 53.65 54.20 54.49 54.53 53.73
35.08 34.94 34.65 36.53 33.80 31.05 27.56 32.67 40.34 39.71 42.00 41.48 43.14 43.91 43.87 44.40 44.43 44.11 43.86 43.97 44.05 44.39 44.37 44.05 43.76 43.38 43.35 43.85 44.22 44.28 43.84 44.06 44.37 44.12 44.01 43.90 44.86 44.62 44.94 45.40 46.09 46.96 47.89 49.02 49.63 50.39 51.16 50.71 50.96
36.79 36.94 37.27 33.58 28.45 30.03 30.59 34.74 37.67 42.33 43.57 43.53 42.65 42.29 43.55 44.22 43.58 43.75 43.63 43.79 43.33 43.12 43.10 42.57 42.42 41.75 41.45 41.97 42.30 41.75 41.67 41.74 41.49 41.09 40.98 41.20 40.99 41.69 41.72 42.10 42.69 43.38 44.11 44.97 45.48 46.16 47.44 47.56 47.41
MSLP
1014.21 1014.00 1013.89 1013.22 1012.85 1012.62 1013.15 1014.13 1014.75 1014.99 1015.37 1015.85 1016.12 1016.10 1015.77 1016.16 1016.38 1017.54 1018.87 1019.08 1018.96 1019.56 1019.92 1020.65 1021.01 1021.20 1021.40 1021.47 1021.43 1021.44 1021.46 1021.53 1021.72 1021.91 1021.98 1022.11 1022.25 1022.22 1022.17 1022.21 1022.17 1022.24 1022.24 1022.39 1022.42 1022.45 1022.34 1022.38 1022.41
1014.09 1013.94 1013.44 1012.96 1012.59 1012.45 1013.24 1014.43 1014.72 1015.06 1015.63 1016.09 1016.40 1016.38 1016.21 1016.65 1017.32 1018.08 1018.77 1019.41 1019.27 1019.81 1020.12 1020.78 1021.17 1021.40 1021.56 1021.61 1021.67 1021.76 1021.76 1021.84 1022.04 1022.21 1022.28 1022.42 1022.54 1022.56 1022.54 1022.58 1022.49 1022.55 1022.79 1022.75 1022.77 1022.85 1022.94 1022.92 1022.92
1014.32 1014.01 1013.00 1013.08 1013.03 1012.76 1013.44 1014.45 1014.68 1015.69 1016.16 1016.17 1016.30 1016.64 1016.54 1016.90 1017.72 1018.04 1018.75 1019.14 1019.42 1019.86 1020.24 1020.83 1021.35 1021.57 1021.77 1021.92 1021.97 1021.91 1022.06 1022.11 1022.23 1022.45 1022.54 1022.76 1022.94 1022.92 1023.00 1022.97 1022.87 1022.99 1023.04 1023.03 1023.22 1023.36 1023.43 1023.46 1023.45
1014.20 1013.81 1014.15 1013.42 1013.21 1013.92 1014.21 1014.60 1015.17 1015.80 1016.21 1016.42 1016.40 1016.37 1017.25 1017.95 1017.75 1018.27 1018.93 1019.15 1019.44 1020.01 1020.46 1021.28 1021.48 1021.78 1021.93 1022.10 1022.19 1022.26 1022.34 1022.44 1022.55 1022.66 1022.92 1023.12 1023.29 1023.32 1023.34 1023.32 1023.28 1023.14 1023.25 1023.46 1023.59 1023.71 1023.77 1023.75 1023.74
1014.34 1013.79 1013.57 1013.68 1013.80 1014.41 1014.92 1015.23 1015.43 1015.54 1015.83 1016.06 1016.45 1016.53 1017.09 1018.13 1018.57 1018.74 1019.10 1019.32 1019.59 1020.11 1020.63 1021.28 1021.70 1021.93 1022.09 1022.22 1022.33 1022.46 1022.57 1022.69 1022.79 1023.00 1023.24 1023.45 1023.57 1023.62 1023.60 1023.59 1023.47 1023.40 1023.59 1023.78 1023.91 1023.97 1023.95 1024.03 1024.09
1013.85 1013.87 1013.58 1013.55 1014.08 1014.81 1015.31 1015.56 1015.60 1015.57 1015.88 1016.26 1016.33 1016.52 1017.36 1018.46 1018.64 1018.85 1019.23 1019.45 1019.78 1020.23 1020.86 1021.36 1021.92 1022.12 1022.30 1022.45 1022.57 1022.72 1022.88 1022.98 1023.05 1023.26 1023.47 1023.70 1023.88 1023.90 1023.88 1023.94 1023.86 1023.80 1023.87 1024.07 1024.23 1024.22 1024.20 1024.34 1024.45
1013.44 1013.63 1013.63 1013.89 1014.33 1014.84 1015.22 1015.82 1015.54 1015.57 1015.92 1016.04 1016.30 1016.33 1017.43 1018.19 1018.72 1019.30 1019.33 1019.51 1020.00 1020.46 1021.04 1021.35 1021.78 1022.29 1022.60 1022.70 1022.85 1023.00 1023.13 1023.23 1023.38 1023.53 1023.75 1023.98 1024.15 1024.24 1024.24 1024.30 1024.37 1024.23 1024.31 1024.49 1024.64 1024.60 1024.59 1024.70 1024.97
1014.19 1014.09 1014.24 1014.29 1014.32 1014.83 1015.48 1015.76 1015.98 1015.77 1015.98 1016.73 1016.71 1016.22 1016.93 1017.60 1018.74 1019.48 1019.72 1019.95 1020.25 1020.64 1020.99 1021.31 1021.70 1022.10 1022.37 1022.79 1023.12 1023.29 1023.44 1023.58 1023.72 1023.86 1024.11 1024.27 1024.43 1024.56 1024.64 1024.64 1024.67 1024.60 1024.66 1024.85 1025.04 1025.11 1025.20 1025.32 1025.46
1014.84 1014.39 1014.16 1014.21 1014.48 1014.89 1015.82 1015.72 1016.35 1016.47 1016.14 1016.52 1016.78 1016.84 1017.58 1018.15 1018.82 1019.36 1019.89 1020.17 1020.45 1020.83 1021.34 1021.56 1021.72 1022.08 1022.37 1022.67 1023.22 1023.58 1023.72 1023.83 1023.97 1024.14 1024.36 1024.46 1024.19 1024.44 1024.64 1024.84 1024.91 1024.89 1024.95 1025.20 1025.36 1025.55 1025.79 1025.86 1025.94
1014.50 1014.38 1014.28 1014.47 1014.39 1014.67 1015.40 1015.52 1015.87 1016.17 1016.07 1016.31 1016.80 1017.52 1018.02 1018.42 1018.78 1018.98 1019.34 1019.69 1020.21 1020.93 1021.59 1021.76 1022.01 1022.01 1022.43 1022.78 1023.16 1023.26 1023.60 1023.70 1023.77 1023.94 1024.19 1024.20 1024.37 1024.51 1024.61 1025.01 1025.22 1025.28 1025.37 1025.51 1025.78 1026.08 1026.33 1026.07 1025.68
1014.93 1014.43 1014.74 1015.03 1015.18 1015.23 1015.38 1015.73 1016.03 1015.83 1015.81 1015.58 1015.98 1016.89 1017.77 1018.25 1018.53 1018.65 1018.86 1019.09 1019.59 1020.54 1021.44 1021.87 1022.05 1022.28 1022.31 1022.60 1022.95 1023.21 1023.47 1023.66 1023.88 1024.07 1024.29 1024.46 1024.56 1024.81 1024.81 1024.95 1025.17 1025.27 1025.56 1025.67 1025.94 1026.17 1025.91 1025.92 1025.77
1014.93 1015.19 1015.26 1015.72 1015.82 1015.85 1015.68 1015.92 1016.08 1015.94 1015.75 1016.07 1016.30 1016.57 1017.48 1017.81 1018.08 1018.08 1018.60 1018.92 1019.39 1019.89 1020.61 1021.56 1021.94 1022.22 1022.43 1022.57 1022.96 1022.89 1023.20 1023.60 1023.77 1024.03 1024.32 1024.45 1024.55 1024.74 1024.75 1024.78 1024.99 1025.28 1025.51 1025.66 1025.88 1025.94 1026.10 1026.10 1026.08
1015.07 1015.49 1015.74 1016.18 1016.32 1016.10 1016.24 1016.16 1016.00 1015.87 1016.03 1016.60 1016.89 1017.11 1017.20 1017.51 1017.83 1018.10 1018.45 1019.04 1019.40 1019.75 1020.16 1020.79 1021.48 1021.90 1022.20 1022.44 1022.74 1022.96 1022.90 1023.29 1023.45 1023.80 1024.16 1024.26 1024.34 1024.54 1024.65 1024.77 1024.99 1025.16 1025.45 1025.56 1025.76 1025.89 1025.97 1026.04 1026.09
1015.37 1015.69 1016.08 1016.45 1016.59 1016.59 1016.44 1016.45 1016.35 1016.08 1016.30 1016.55 1016.86 1016.89 1016.98 1017.19 1017.73 1018.19 1018.49 1018.74 1019.18 1019.51 1019.83 1020.28 1020.75 1021.33 1021.66 1022.02 1022.37 1022.72 1022.96 1022.90 1023.30 1023.45 1023.71 1024.08 1024.17 1024.38 1024.58 1024.81 1024.95 1025.11 1025.33 1025.44 1025.53 1025.59 1025.72 1025.83 1025.97
1015.69 1015.97 1016.31 1016.68 1016.77 1016.90 1016.69 1016.39 1016.05 1016.05 1016.43 1016.40 1016.62 1016.84 1017.04 1017.17 1017.48 1017.86 1018.22 1018.46 1018.77 1019.16 1019.50 1019.90 1020.37 1020.82 1021.24 1021.56 1021.94 1022.33 1022.69 1022.99 1022.98 1023.15 1023.47 1023.73 1023.96 1024.07 1024.32 1024.57 1024.73 1024.91 1025.18 1025.37 1025.60 1025.93 1026.03 1025.82 1025.84
1015.67 1016.04 1016.54 1016.90 1017.16 1017.32 1016.98 1015.71 1015.99 1016.35 1016.25 1016.03 1016.27 1016.33 1016.76 1017.02 1017.27 1017.55 1017.83 1018.08 1018.36 1018.82 1019.14 1019.62 1020.15 1020.57 1020.86 1021.14 1021.45 1021.76 1022.07 1022.42 1022.65 1022.92 1023.08 1023.40 1023.58 1023.91 1024.40 1024.68 1024.77 1025.01 1025.23 1025.24 1025.47 1025.86 1026.27 1026.13 1026.17
1015.94 1015.59 1016.49 1017.29 1017.48 1017.39 1017.01 1016.09 1016.25 1016.65 1016.42 1016.13 1016.03 1016.11 1016.44 1016.80 1017.30 1017.42 1017.74 1017.92 1018.08 1018.48 1018.81 1019.26 1019.72 1020.15 1020.51 1020.74 1021.01 1021.40 1021.67 1022.02 1022.19 1022.59 1022.89 1022.96 1023.29 1023.58 1023.82 1023.92 1024.19 1024.83 1025.15 1025.38 1025.26 1025.25 1025.51 1025.72 1025.66
1015.04 1015.88 1016.57 1016.92 1017.57 1017.53 1017.20 1016.21 1016.10 1016.43 1016.62 1016.04 1016.07 1016.18 1016.33 1016.59 1016.91 1017.28 1017.47 1017.65 1017.84 1018.07 1018.41 1018.68 1019.10 1019.67 1020.09 1020.41 1020.68 1021.02 1021.37 1021.62 1021.84 1022.09 1022.48 1022.72 1022.75 1023.04 1023.36 1023.27 1023.46 1024.02 1024.30 1024.84 1025.01 1025.08 1025.14 1025.19 1025.17
1015.14 1015.71 1016.50 1017.34 1017.78 1017.82 1017.29 1016.37 1016.01 1016.26 1016.39 1016.36 1016.00 1016.47 1016.44 1016.61 1017.20 1017.52 1017.61 1017.62 1017.76 1018.01 1018.08 1018.25 1018.51 1018.86 1019.53 1020.07 1020.44 1020.83 1020.91 1021.25 1021.49 1021.74 1021.98 1022.34 1022.44 1022.64 1022.90 1022.95 1023.16 1023.53 1023.63 1023.71 1024.17 1024.67 1025.00 1025.23 1025.56
1015.79 1016.16 1016.84 1017.84 1018.07 1018.08 1017.67 1016.68 1016.18 1016.37 1016.54 1017.11 1017.11 1016.92 1017.10 1017.10 1017.45 1017.84 1017.83 1017.86 1017.89 1017.74 1017.92 1018.00 1017.98 1018.50 1018.98 1019.50 1019.95 1020.33 1020.62 1020.86 1021.00 1021.22 1021.52 1021.86 1021.97 1022.22 1022.45 1022.58 1022.63 1023.10 1023.44 1023.39 1023.68 1024.28 1024.44 1024.96 1024.84
1016.46 1016.27 1017.16 1017.65 1018.11 1018.31 1017.97 1016.70 1016.17 1016.71 1017.12 1017.49 1017.89 1017.96 1017.98 1017.81 1017.91 1018.16 1018.26 1018.19 1018.15 1018.15 1018.07 1018.08 1018.24 1018.34 1018.65 1019.14 1019.52 1019.99 1020.54 1020.81 1020.84 1020.91 1021.12 1021.25 1021.64 1021.87 1021.91 1022.13 1022.22 1022.52 1023.12 1023.12 1023.29 1023.65 1023.83 1023.87 1024.57
1016.90 1016.87 1017.38 1017.85 1017.96 1018.01 1018.32 1016.52 1016.12 1016.58 1017.15 1017.68 1018.24 1018.14 1018.35 1018.46 1018.59 1018.76 1018.79 1018.75 1018.74 1018.65 1018.47 1018.31 1018.40 1018.49 1018.65 1018.93 1019.26 1019.67 1019.95 1020.09 1020.17 1020.51 1020.81 1020.91 1021.24 1021.44 1021.64 1021.80 1021.91 1022.05 1022.41 1022.60 1022.56 1022.79 1022.92 1023.28 1023.55
1017.45 1017.58 1017.96 1018.22 1018.23 1018.34 1018.10 1017.79 1016.09 1016.74 1017.05 1017.77 1018.45 1018.84 1018.82 1019.25 1019.17 1019.30 1019.39 1019.47 1019.40 1019.21 1019.01 1018.61 1018.65 1018.77 1018.91 1018.93 1019.05 1019.47 1019.77 1019.80 1019.90 1020.09 1020.46 1020.54 1020.53 1020.80 1020.97 1021.09 1021.26 1021.47 1021.58 1021.65 1021.69 1021.95 1022.24 1022.39 1022.54
1018.03 1018.02 1018.72 1018.97 1018.75 1018.62 1018.14 1018.01 1016.17 1016.44 1016.82 1017.90 1018.76 1019.25 1019.41 1019.58 1019.73 1020.03 1020.11 1019.91 1019.87 1019.73 1019.51 1019.41 1019.25 1019.37 1019.31 1019.34 1019.42 1019.49 1019.66 1019.92 1020.21 1020.20 1020.36 1020.45 1020.39 1020.20 1020.36 1020.53 1020.62 1020.61 1020.66 1020.87 1020.95 1021.07 1021.31 1021.52 1021.63
1017.81 1017.55 1018.69 1019.25 1019.16 1018.74 1019.21 1019.02 1015.96 1016.98 1017.26 1017.58 1018.48 1019.35 1019.83 1020.12 1020.03 1020.15 1020.34 1020.37 1020.36 1020.31 1020.11 1020.04 1019.88 1019.96 1020.09 1020.10 1020.27 1020.31 1020.36 1020.47 1020.60 1020.75 1020.80 1020.81 1020.76 1020.64 1020.61 1020.50 1020.39 1020.25 1020.19 1020.16 1020.20 1020.40 1020.63 1020.78 1020.79
1017.37 1016.83 1017.06 1018.04 1019.23 1019.11 1019.97 1018.54 1016.90 1017.67 1017.63 1018.33 1018.92 1019.51 1020.09 1020.32 1020.65 1020.77 1020.85 1020.95 1020.93 1020.90 1020.72 1020.60 1020.54 1020.59 1020.70 1020.70 1020.77 1020.87 1020.80 1020.80 1020.95 1021.05 1020.98 1020.81 1020.78 1020.62 1020.48 1020.43 1020.41 1020.25 1020.16 1019.99 1019.85 1019.82 1019.79 1019.90 1019.96
1017.50 1017.30 1017.28 1018.12 1020.17 1019.34 1018.19 1017.73 1017.76 1018.09 1018.12 1018.58 1019.08 1019.58 1020.22 1020.54 1020.82 1021.11 1021.29 1021.42 1021.48 1021.67 1021.56 1021.30 1021.25 1021.32 1021.40 1021.45 1021.36 1021.44 1021.50 1021.48 1021.59 1021.64 1021.57 1021.48 1021.35 1021.25 1021.08 1020.73 1020.47 1020.17 1019.96 1019.85 1019.70 1019.51 1019.28 1019.25 1019.23
1016.39 1016.40 1017.09 1017.31 1018.38 1018.32 1017.60 1017.28 1015.83 1017.14 1017.52 1018.07 1018.92 1019.39 1020.11 1020.86 1021.31 1021.56 1021.71 1022.00 1022.05 1022.19 1022.25 1022.09 1021.94 1021.99 1022.13 1022.09 1022.11 1022.05 1022.12 1022.10 1022.14 1022.11 1022.05 1021.89 1021.56 1021.28 1021.05 1020.78 1020.56 1020.24 1019.99 1019.70 1019.52 1019.40 1019.16 1018.85 1018.64
1016.64 1016.33 1016.51 1016.36 1016.70 1016.46 1016.63 1015.41 1014.53 1014.94 1015.78 1016.83 1018.44 1019.24 1019.95 1020.82 1021.30 1021.65 1022.05 1022.30 1022.49 1022.47 1022.74 1022.64 1022.56 1022.70 1022.64 1022.77 1022.90 1022.83 1022.81 1022.70 1022.51 1022.57 1022.53 1022.55 1022.21 1021.86 1021.57 1021.29 1020.98 1020.64 1020.21 1019.85 1019.69 1019.43 1019.11 1018.72 1018.28
1016.07 1015.62 1015.56 1015.44 1016.15 1016.33 1016.23 1014.93 1015.02 1015.00 1015.88 1016.99 1018.34 1019.33 1020.16 1020.88 1021.30 1021.57 1021.89 1022.14 1022.53 1022.97 1023.25 1023.18 1023.22 1023.25 1023.28 1023.29 1023.36 1023.40 1023.36 1023.27 1023.25 1023.18 1023.09 1023.03 1022.77 1022.35 1022.06 1021.71 1021.25 1020.91 1020.52 1020.13 1019.85 1019.44 1019.02 1018.60 1018.11
Wind_Speed
4 5 2 4 4 1 5 5 1 5 6 2 3 3 2 5 4 5 5 6 12 13 12 11 9 11 10 9 9 10 9 14 16 16 16 14 13 13 14 13 12 14 16 16 16 15 15 16 16
5 3 2 1 2 4 5 4 7 5 4 7 5 4 3 5 4 7 12 7 15 13 12 11 10 11 10 10 10 9 10 15 15 15 14 14 13 12 13 13 12 15 16 15 15 16 15 14 15
2 4 3 2 1 2 3 7 7 5 6 4 3 1 1 4 4 13 4 16 15 13 10 12 10 11 11 11 10 8 11 13 14 14 14 13 12 11 12 12 12 14 16 15 14 14 14 14 13
2 2 3 4 2 3 1 7 5 10 3 2 0 4 3 4 7 5 13 17 16 12 11 12 11 11 12 11 10 10 11 11 13 14 14 13 11 10 12 10 9 12 14 15 14 14 13 13 13
2 2 3 2 2 2 2 3 9 10 5 4 2 3 3 4 2 9 16 15 15 12 11 12 10 10 11 11 10 10 10 9 13 14 13 13 11 10 11 8 10 10 14 13 13 11 11 13 14
3 1 5 7 3 2 2 7 8 6 4 5 4 5 4 3 7 11 16 15 13 12 11 11 10 10 10 10 9 8 9 10 14 13 12 12 10 9 10 10 8 10 14 13 12 9 12 12 13
5 5 5 3 6 5 5 8 7 6 6 5 3 4 4 7 6 11 15 14 12 12 10 10 11 10 7 8 8 8 8 9 11 10 10 11 8 7 7 7 8 9 14 12 10 9 10 12 12
3 2 5 4 7 4 7 6 0 5 4 2 1 4 5 10 12 12 12 12 12 11 10 9 9 9 9 9 7 6 7 8 8 10 9 7 8 7 6 6 6 7 10 12 10 8 10 10 10
1 4 6 7 7 6 7 6 2 0 5 3 3 1 4 13 15 14 12 11 10 9 8 8 9 8 7 8 7 7 6 7 8 9 8 8 6 7 8 7 6 7 7 9 10 8 7 9 8
3 5 8 4 4 6 11 6 9 6 5 4 5 4 7 13 15 17 17 15 14 12 10 9 9 9 8 6 8 7 7 6 6 7 8 4 6 5 4 5 6 6 6 8 11 9 1 4 4
3 6 5 5 2 4 10 6 4 6 6 6 8 11 11 13 14 16 17 17 16 14 10 10 9 9 9 7 6 4 4 4 4 7 6 5 4 5 5 5 5 5 5 3 4 4 3 2 2
5 2 3 3 3 5 9 8 5 6 3 4 2 6 13 17 16 17 16 16 16 16 15 12 11 9 10 6 6 6 5 5 5 6 7 5 4 5 5 4 4 4 4 4 3 3 2 3 2
2 5 4 4 4 5 6 4 1 6 5 3 2 7 12 14 15 14 13 13 14 15 15 15 13 11 10 10 7 7 7 6 6 7 7 6 5 5 5 5 5 4 4 4 4 4 4 3 4
4 6 6 2 3 3 3 2 2 2 3 3 6 7 9 12 13 12 13 14 15 14 15 14 15 14 12 10 10 8 7 7 7 6 7 9 6 5 5 5 5 5 5 4 5 5 4 4 4
8 7 3 2 1 2 2 5 7 1 1 2 6 5 5 10 12 15 14 14 15 14 14 15 15 14 13 13 10 8 8 7 7 7 9 10 9 8 7 6 6 6 6 6 5 4 4 5 5
5 4 6 2 2 1 3 9 1 3 3 6 5 5 7 8 11 13 13 13 14 14 15 14 12 14 14 12 10 9 8 8 8 8 7 11 11 9 7 5 5 5 5 6 6 6 4 4 4
1 7 6 3 0 1 4 5 2 1 2 3 3 3 3 4 7 9 11 13 14 15 15 15 15 16 15 15 11 10 10 8 8 7 7 11 12 11 9 8 8 7 6 6 6 7 7 6 7
10 7 4 6 4 2 3 12 5 4 6 6 6 5 2 4 5 4 7 9 13 14 15 16 14 16 15 10 8 7 7 7 7 7 7 12 11 13 11 9 9 9 9 8 7 6 6 7 8
9 5 6 2 2 3 7 11 12 6 7 9 7 6 3 6 4 5 4 4 8 11 15 16 16 16 11 8 7 7 8 7 7 7 10 12 12 13 12 10 10 10 11 11 11 8 7 5 5
6 9 5 3 3 3 1 11 11 6 3 4 8 4 3 2 4 6 5 4 1 7 10 13 15 14 12 9 7 6 6 6 7 7 9 10 12 13 12 12 10 8 7 9 9 10 7 6 7
3 8 6 2 4 2 3 7 5 2 2 4 4 2 3 4 5 7 7 7 6 4 3 8 11 12 12 13 8 5 1 1 4 6 6 8 11 11 13 13 11 10 8 8 9 9 10 9 6
6 5 7 9 6 4 2 3 3 1 4 5 4 5 5 6 6 7 8 9 9 7 5 3 5 7 9 11 9 11 9 9 7 6 4 5 9 10 10 10 10 10 8 10 11 10 13 11 9
3 7 6 4 4 1 3 5 2 2 4 4 6 6 8 8 9 10 10 9 10 9 9 9 8 5 5 7 10 8 9 7 5 3 5 7 8 11 12 12 11 11 9 11 12 10 11 10 10
13 10 7 3 2 4 5 6 5 5 5 7 6 8 9 10 10 10 9 9 11 11 11 11 12 11 7 4 5 6 7 7 6 6 5 4 5 3 7 9 10 11 11 11 10 12 13 12 11
4 14 4 3 5 5 2 5 5 5 4 12 13 11 9 8 9 9 10 10 11 12 12 11 13 14 11 10 8 6 5 3 1 2 2 4 3 3 5 5 5 5 7 9 9 9 11 12 12
12 8 7 8 6 4 3 8 3 3 2 10 10 10 9 9 8 9 10 10 11 11 12 12 13 13 12 11 11 9 7 4 3 4 3 3 4 4 6 7 8 9 9 7 7 8 9 10 10
7 9 4 8 2 2 6 4 5 4 9 10 11 12 11 9 9 10 10 9 10 10 11 11 12 12 12 11 10 10 9 9 7 6 5 5 5 6 7 8 9 9 10 10 9 6 7 8 10
5 12 4 1 7 6 5 6 6 14 18 15 14 14 12 9 9 8 9 9 9 9 9 11 11 11 10 10 9 8 8 8 7 6 8 7 7 8 8 8 9 9 10 10 11 10 12 11 8
6 7 2 2 3 5 5 7 5 22 23 21 17 14 13 11 9 9 8 8 9 9 9 9 10 10 10 9 9 9 8 9 8 8 8 9 8 9 9 10 10 11 11 11 11 12 13 14 14
2 7 11 7 7 2 0 4 2 13 18 18 15 12 11 10 9 9 9 9 9 8 7 8 8 9 8 7 7 8 8 8 8 8 8 8 8 8 8 9 8 9 10 11 12 13 12 14 15
Wind_Direction
304 320 267 233 220 239 127 132 30 143 171 93 113 256 19 23 8 36 130 120 145 147 135 144 133 125 126 112 108 100 98 120 111 99 95 88 90 93 91 88 87 89 89 84 84 81 76 76 71
330 288 236 64 256 188 128 143 189 138 98 129 135 160 189 80 67 104 139 157 153 146 141 142 127 130 128 111 101 104 100 118 111 101 97 91 95 99 95 88 88 98 89 86 85 86 88 84 83
297 346 306 3 268 126 142 177 153 119 127 174 166 311 56 92 102 145 100 154 151 147 147 129 129 133 135 123 115 103 104 121 113 107 96 97 100 104 96 84 78 100 94 87 88 93 91 89 93
288 194 121 271 139 95 60 155 147 147 168 191 269 128 118 4 140 141 147 156 153 148 147 136 136 141 133 124 122 104 106 107 112 110 105 103 105 109 99 97 111 98 92 91 97 103 104 104 98
47 221 229 265 142 120 184 144 169 160 143 149 188 113 79 106 125 140 153 161 154 151 146 148 136 135 133 131 128 117 113 113 119 112 113 110 115 116 106 89 73 95 104 105 107 106 95 103 94
158 254 219 220 156 166 179 163 170 178 151 137 169 141 92 99 161 156 158 162 157 152 152 146 141 139 140 136 129 124 121 118 117 116 116 116 120 122 115 102 96 81 111 109 105 103 98 97 99
199 193 229 196 157 164 158 165 185 174 166 156 124 143 108 158 151 165 162 161 163 157 161 158 155 145 132 128 128 127 123 118 126 118 110 108 112 109 100 102 99 91 98 102 94 84 89 99 95
117 190 165 206 179 140 147 167 169 199 147 90 180 154 146 147 145 159 164 165 169 167 168 166 157 161 156 150 129 128 124 122 115 113 114 104 106 102 88 100 97 117 102 111 104 91 85 91 98
107 176 198 184 179 137 151 174 146 20 149 186 161 36 75 135 145 156 169 173 177 179 168 181 170 169 165 159 142 137 123 111 109 118 114 146 137 148 162 65 112 124 105 106 105 102 88 98 87
173 202 195 190 180 156 167 187 156 189 163 189 172 131 134 154 163 168 178 183 185 187 187 183 185 179 173 168 165 167 154 169 170 164 165 155 150 145 139 116 112 96 128 103 98 84 65 246 152
176 195 151 167 186 168 151 167 167 181 195 198 201 173 161 171 181 183 188 191 189 187 187 193 190 190 189 178 176 177 182 179 175 174 170 158 155 160 170 153 160 152 155 129 132 164 194 183 199
167 93 121 131 145 151 157 128 189 221 66 69 164 165 168 182 193 191 197 194 192 189 190 193 197 196 194 188 190 191 189 186 188 185 178 169 173 178 176 177 168 175 183 171 188 178 170 179 184
127 140 104 104 140 114 133 144 144 226 194 174 74 169 186 198 200 202 200 202 198 199 196 191 196 197 197 199 194 200 209 196 194 187 187 193 189 186 183 179 182 186 183 188 188 186 192 196 200
113 120 109 118 111 104 190 152 238 132 81 208 198 189 191 204 205 202 206 205 208 207 203 199 198 200 202 199 199 201 202 207 199 198 195 202 201 196 193 188 193 194 198 193 198 197 203 209 210
126 107 109 111 88 69 324 228 223 158 203 171 197 199 198 206 201 215 211 213 209 212 208 203 205 202 203 202 201 205 204 206 214 205 203 203 206 202 201 198 200 203 199 200 201 204 234 237 220
105 130 179 139 180 85 229 250 162 343 246 219 193 195 217 215 218 221 224 221 217 216 214 211 205 209 207 207 202 205 206 206 215 219 212 211 209 201 189 193 206 198 196 204 205 200 213 221 231
137 191 201 177 180 154 218 260 81 278 351 179 180 172 211 237 236 229 232 229 226 222 216 216 210 212 214 214 212 209 210 211 217 209 217 220 218 210 200 205 206 191 198 206 209 212 218 223 228
171 183 187 199 160 179 214 255 235 213 287 268 270 284 277 262 263 264 248 237 234 225 223 220 215 215 218 217 211 204 203 207 210 210 203 230 222 217 219 222 215 198 200 207 211 217 219 243 237
153 134 163 143 87 222 231 266 267 283 273 265 271 288 299 293 338 305 269 241 227 228 225 220 218 217 208 207 202 207 208 203 206 209 208 221 229 222 221 227 221 209 215 219 217 214 216 221 257
125 159 152 109 66 225 223 265 267 286 262 313 310 306 344 343 44 40 45 55 235 229 225 225 223 218 210 207 212 215 207 217 215 207 209 214 229 229 228 229 231 219 222 218 211 205 219 236 182
152 162 170 141 133 89 287 251 238 122 91 68 48 60 61 60 57 54 53 51 50 51 236 222 223 221 217 221 218 198 52 335 211 216 209 207 214 228 228 231 236 229 217 219 214 212 212 229 214
188 175 139 133 173 228 345 273 202 121 99 69 59 88 82 80 86 70 60 51 45 39 53 134 200 214 220 217 216 218 226 237 235 234 211 207 204 214 220 225 226 226 215 221 223 215 222 227 217
151 136 122 120 110 200 187 262 178 156 161 99 90 93 87 81 80 77 68 57 53 46 52 70 87 118 183 205 218 220 235 248 263 257 221 215 209 212 217 219 221 225 225 228 230 221 221 224 234
141 107 71 72 124 233 194 240 217 186 167 134 124 110 106 99 92 78 68 65 60 59 60 60 68 63 74 123 187 220 236 247 260 259 265 279 290 254 233 223 224 227 229 227 227 228 223 224 230
191 155 131 184 198 236 78 223 266 154 136 152 144 133 119 112 100 89 75 67 61 57 61 64 66 63 63 75 68 60 55 51 9 347 313 304 292 281 274 283 272 256 243 241 236 230 229 226 229
186 189 169 183 196 159 91 227 240 209 150 142 138 135 136 122 106 91 85 80 72 70 69 69 68 68 62 67 68 66 60 56 45 15 344 315 309 306 310 300 291 287 284 275 259 242 234 232 232
174 211 91 106 43 180 191 234 215 167 166 166 159 158 145 130 117 104 96 88 84 76 70 72 72 69 61 61 63 59 52 51 41 29 15 0 343 339 323 313 300 289 278 273 272 264 259 238 238
214 139 135 145 163 217 197 257 207 179 181 176 170 164 149 136 126 114 104 101 90 80 75 71 69 69 66 65 62 63 58 52 44 37 24 8 355 347 336 329 318 308 300 293 284 277 272 263 253
148 186 182 159 211 188 177 233 220 187 181 173 170 163 155 151 138 124 112 100 93 82 71 72 68 61 57 51 47 49 46 42 42 34 23 7 356 358 351 341 330 322 316 310 300 290 287 280 276
322 211 187 193 196 241 295 242 319 192 170 165 164 161 153 148 140 129 116 102 91 89 81 70 67 64 57 56 55 50 46 40 35 27 15 4 352 353 348 341 334 327 321 315 307 299 292 287 282